Zurück zum Katalog

COSMOS 1285 DEB

LostHEO
NORAD 25839·DEBRIS·🇷🇺 Russia

Gestartet Aug 4, 1981 von Plesetsk Cosmodrome

Loading…

Nächste Überflüge (nächste 24 Stunden)

TLE

VeraltetSource: Space-Track

Epoche: Dec 18, 2025, 11:11 UTC

1 25839U 81071H   25352.46651556  .00000036  00000-0  00000-0 0  9998
2 25839  67.2699  77.0658 6460191   5.8488  11.7236  1.98330832208570

Verfolge COSMOS 1285 DEB in Echtzeit mit AllMySat

Download on the App Store